Weather History for KLUX - October, 2012

Change the Weather History Date:

Friday, October 26, 2012

  Actual Average (KGSP) Record (KGSP)
Temperature  
Mean Temperature 66 °F 59 °F  
Max Temperature 78 °F 70 °F 87 °F (1940)
Min Temperature 53 °F 47 °F 28 °F (1930)
Degree Days  
Heating Degree Days 0 7  
Month to date heating degree days 113  
Since 1 July heating degree days 130  
Cooling Degree Days 0 1  
Month to date cooling degree days 45  
Year to date cooling degree days 1707  
Growing Degree Days 16 (Base 50)    
Moisture  
Dew Point 56 °F    
Average Humidity 75    
Maximum Humidity 100    
Minimum Humidity 42    
Precipitation  
Precipitation 0.00 in 0.10 in 3.66 in (1997)
Month to date precipitation 2.92  
Year to date precipitation 38.86  
Snow  
Snow 0.00 in 0.00 in T in (1926)
Month to date snowfall 0.0  
Since 1 July snowfall 0.0  
Since 1 September snowfall 0.0  
Snow Depth -    
Sea Level Pressure  
Sea Level Pressure 30.03 in    
Wind  
Wind Speed 5 mph (NE)    
Max Wind Speed 12 mph    
Max Gust Speed 18 mph    
Visibility 10 miles    
Events      
T = Trace of Precipitation, MM = Missing Value Source: NWS Daily Summary

Daily Weather History Graph

Daily Weather History Graph

Search for Another Location

Airport or City:

Trip Planner

Search our weather history database for the weather conditions in past years. The results will help you decide how hot, cold, wet, or windy it might be!

Date:

Astronomy

Oct. 26, 2012 Rise Set
Actual Time 7:43 AM EDT 6:39 PM EDT
Civil Twilight 7:17 AM EDT 7:05 PM EDT
Nautical Twilight 6:47 AM EDT 7:35 PM EDT
Astronomical Twilight 6:18 AM EDT 8:04 PM EDT
Moon 4:49 PM EDT (10/26) 4:44 AM EDT (10/26)
Length of Visible Light 11h 48m
Length of Day
10h 56m
Waxing Gibbous, 91% of the Moon is Illuminated
Oct 26
Waxing Gibbous
Oct 29
Full
Nov 6
Last Quarter
Nov 13
New
Nov 20
First Quarter

Hourly Weather History & Observations

Time (EDT) Temp. Dew Point Humidity Pressure Visibility Wind Dir Wind Speed Gust Speed Precip Events Conditions
12:15 AM 59.0 °F 59.0 °F 100% 30.09 in 10.0 mi NNE 3.5 mph - N/A   Mostly Cloudy
12:35 AM 59.0 °F 59.0 °F 100% 30.08 in 10.0 mi Calm Calm - N/A   Scattered Clouds
12:55 AM 59.0 °F 59.0 °F 100% 30.08 in 10.0 mi Calm Calm - N/A   Clear
1:15 AM 57.2 °F 57.2 °F 100% 30.08 in 10.0 mi ENE 3.5 mph - N/A   Clear
1:35 AM 57.2 °F 57.2 °F 100% 30.08 in 10.0 mi East 3.5 mph - N/A   Clear
1:55 AM 57.2 °F 57.2 °F 100% 30.07 in 10.0 mi East 3.5 mph - N/A   Clear
2:15 AM 55.4 °F 55.4 °F 100% 30.06 in 10.0 mi Calm Calm - N/A   Clear
2:35 AM 55.4 °F 55.4 °F 100% 30.06 in 10.0 mi ENE 3.5 mph - N/A   Clear
2:55 AM 55.4 °F 55.4 °F 100% 30.06 in 10.0 mi ENE 3.5 mph - N/A   Clear
3:15 AM 55.4 °F 55.4 °F 100% 30.06 in 10.0 mi North 3.5 mph - N/A   Clear
3:35 AM 55.4 °F 55.4 °F 100% 30.06 in 10.0 mi North 3.5 mph - N/A   Clear
3:55 AM 53.6 °F 53.6 °F 100% 30.06 in 10.0 mi North 4.6 mph - N/A   Clear
4:15 AM 53.6 °F 53.6 °F 100% 30.06 in 10.0 mi North 4.6 mph - N/A   Clear
4:35 AM 53.6 °F 53.6 °F 100% 30.06 in 10.0 mi North 3.5 mph - N/A   Clear
4:55 AM 53.6 °F 53.6 °F 100% 30.07 in 10.0 mi North 4.6 mph - N/A   Clear
5:15 AM 53.6 °F 53.6 °F 100% 30.08 in 7.0 mi North 5.8 mph - N/A   Clear
5:35 AM 53.6 °F 53.6 °F 100% 30.07 in 7.0 mi North 4.6 mph - N/A   Clear
5:55 AM 53.6 °F 53.6 °F 100% 30.08 in 7.0 mi North 4.6 mph - N/A   Clear
6:15 AM 53.6 °F 53.6 °F 100% 30.08 in 7.0 mi North 4.6 mph - N/A   Clear
6:35 AM 53.6 °F 53.6 °F 100% 30.08 in 7.0 mi North 5.8 mph - N/A   Clear
6:55 AM 53.6 °F 53.6 °F 100% 30.08 in 7.0 mi North 4.6 mph - N/A   Clear
7:15 AM 53.6 °F 53.6 °F 100% 30.08 in 7.0 mi North 4.6 mph - N/A   Clear
7:35 AM 53.6 °F 53.6 °F 100% 30.08 in 7.0 mi NNE 4.6 mph - N/A   Clear
7:55 AM 55.4 °F 55.4 °F 100% 30.06 in 7.0 mi North 5.8 mph - N/A   Clear
8:15 AM 55.4 °F 55.4 °F 100% 30.08 in 7.0 mi NNE 4.6 mph - N/A   Clear
8:35 AM 59.0 °F 59.0 °F 100% 30.08 in 7.0 mi NNE 3.5 mph - N/A   Clear
8:55 AM 59.0 °F 59.0 °F 100% 30.09 in 10.0 mi NNE 4.6 mph - N/A   Clear
9:55 AM 64.4 °F 60.8 °F 88% 30.10 in 10.0 mi NNE 8.1 mph - N/A   Clear
10:35 AM 69.8 °F 60.8 °F 73% 30.10 in 10.0 mi NE 6.9 mph - N/A   Clear
10:55 AM 71.6 °F 60.8 °F 69% 30.09 in 10.0 mi NE 6.9 mph - N/A   Clear
11:15 AM 71.6 °F 60.8 °F 69% 30.09 in 10.0 mi NE 8.1 mph - N/A   Clear
11:35 AM 71.6 °F 60.8 °F 69% 30.09 in 10.0 mi NNE 10.4 mph - N/A   Clear
11:55 AM 73.4 °F 59.0 °F 61% 30.07 in 10.0 mi NE 8.1 mph - N/A   Clear
12:15 PM 73.4 °F 59.0 °F 61% 30.06 in 10.0 mi NE 6.9 mph - N/A   Clear
12:35 PM 77.0 °F 59.0 °F 54% 30.05 in 10.0 mi NNE 11.5 mph 18.4 mph N/A   Clear
12:55 PM 77.0 °F 59.0 °F 54% 30.04 in 10.0 mi NE 5.8 mph - N/A   Clear
1:15 PM 75.2 °F 57.2 °F 53% 30.04 in 10.0 mi ENE 8.1 mph 16.1 mph N/A   Clear
1:35 PM 77.0 °F 57.2 °F 50% 30.03 in 10.0 mi NE 10.4 mph 17.3 mph N/A   Scattered Clouds
1:55 PM 77.0 °F 55.4 °F 47% 30.02 in 10.0 mi ENE 10.4 mph 17.3 mph N/A   Scattered Clouds
2:15 PM 77.0 °F 55.4 °F 47% 30.01 in 10.0 mi NNE 9.2 mph - N/A   Scattered Clouds
2:35 PM 77.0 °F 55.4 °F 47% 30.00 in 10.0 mi NE 9.2 mph - N/A   Scattered Clouds
2:55 PM 78.8 °F 55.4 °F 44% 29.99 in 10.0 mi NNE 10.4 mph - N/A   Scattered Clouds
3:15 PM 78.8 °F 53.6 °F 42% 29.98 in 10.0 mi ENE 10.4 mph 18.4 mph N/A   Scattered Clouds
3:35 PM 78.8 °F 53.6 °F 42% 29.97 in 10.0 mi NE 8.1 mph - N/A   Clear
3:55 PM 78.8 °F 53.6 °F 42% 29.97 in 10.0 mi NE 9.2 mph - N/A   Clear
4:15 PM 78.8 °F 53.6 °F 42% 29.96 in 10.0 mi ENE 8.1 mph 16.1 mph N/A   Clear
4:35 PM 78.8 °F 53.6 °F 42% 29.95 in 10.0 mi ENE 8.1 mph - N/A   Clear
4:55 PM 77.0 °F 53.6 °F 44% 29.95 in 10.0 mi NE 4.6 mph - N/A   Clear
5:15 PM 77.0 °F 53.6 °F 44% 29.95 in 10.0 mi ENE 6.9 mph - N/A   Clear
5:35 PM 77.0 °F 53.6 °F 44% 29.95 in 10.0 mi NE 6.9 mph - N/A   Clear
5:55 PM 75.2 °F 53.6 °F 47% 29.95 in 10.0 mi ENE 6.9 mph - N/A   Clear
6:15 PM 73.4 °F 53.6 °F 50% 29.95 in 10.0 mi ENE 5.8 mph - N/A   Clear
6:35 PM 73.4 °F 53.6 °F 50% 29.95 in 10.0 mi NE 3.5 mph - N/A   Clear
6:55 PM 69.8 °F 55.4 °F 60% 29.96 in 10.0 mi NNE 3.5 mph - N/A   Clear
7:15 PM 69.8 °F 55.4 °F 60% 29.96 in 10.0 mi NE 5.8 mph - N/A   Clear
7:35 PM 69.8 °F 53.6 °F 56% 29.96 in 10.0 mi ENE 6.9 mph - N/A   Clear
8:15 PM 68.0 °F 53.6 °F 60% 29.96 in 10.0 mi ENE 6.9 mph - N/A   Clear
8:35 PM 68.0 °F 53.6 °F 60% 29.96 in 10.0 mi ENE 6.9 mph - N/A   Clear
8:55 PM 68.0 °F 53.6 °F 60% 29.96 in 10.0 mi NE 5.8 mph - N/A   Clear
9:15 PM 66.2 °F 53.6 °F 64% 29.96 in 10.0 mi ENE 6.9 mph - N/A   Clear
9:35 PM 64.4 °F 53.6 °F 68% 29.97 in 10.0 mi NE 5.8 mph - N/A   Clear
9:55 PM 64.4 °F 53.6 °F 68% 29.97 in 10.0 mi NNE 5.8 mph - N/A   Clear
10:15 PM 64.4 °F 53.6 °F 68% 29.96 in 10.0 mi NNE 6.9 mph - N/A   Clear
10:35 PM 62.6 °F 55.4 °F 77% 29.97 in 10.0 mi NNE 6.9 mph - N/A   Clear
10:55 PM 62.6 °F 55.4 °F 77% 29.96 in 10.0 mi NNE 6.9 mph - N/A   Clear
11:15 PM 62.6 °F 55.4 °F 77% 29.96 in 10.0 mi NNE 8.1 mph - N/A   Clear
11:55 PM 60.8 °F 55.4 °F 82% 29.95 in 10.0 mi NNE 6.9 mph - N/A   Clear